When you browse on this site, cookies collect data to enhance your experience and personalize the content and advertising you see.
Visit our Privacy Policy to learn more. By continuing to use the site, you agree to this use of cookies and data.
  • In United Kingdom
  • List of Countries
  • For 7 days
  • Water Temperature
  • Weather Map
  • Weather Widgets
  • user-avatar
    Login

    Hourly Weather Warwick

    Today, 6 June, Saturday

    Time Temperature Precipitation Wind Pressure Humidity
    00:00 +3°C° 0 mm 5 mps 743 mmHg 83%
    01:00 +3°C° 0 mm 5 mps 743 mmHg 83%
    02:00 +3°C° 0 mm 5 mps 743 mmHg 83%
    03:00 +2°C° 0 mm 6 mps 743 mmHg 83%
    04:00 +3°C° 0 mm 7 mps 742 mmHg 80%
    05:00 +4°C° 0 mm 8 mps 742 mmHg 78%
    06:00 +5°C° 0 mm 9 mps 742 mmHg 75%
    07:00 +6°C° 0.3 mm 9 mps 741 mmHg 79%
    08:00 +6°C° 0.3 mm 9 mps 741 mmHg 83%
    09:00 +7°C° 0.3 mm 9 mps 741 mmHg 86%
    10:00 +8°C° 0.5 mm 9 mps 741 mmHg 84%
    11:00 +10°C° 0.5 mm 8 mps 741 mmHg 81%
    12:00 +12°C° 0.5 mm 7 mps 741 mmHg 78%
    13:00 +12°C° 0.5 mm 7 mps 741 mmHg 75%
    14:00 +14°C° 0.5 mm 7 mps 742 mmHg 73%
    15:00 +14°C° 0.5 mm 7 mps 742 mmHg 71%
    16:00 +14°C° 0.4 mm 7 mps 742 mmHg 73%
    17:00 +13°C° 0.4 mm 6 mps 743 mmHg 75%
    18:00 +13°C° 0.4 mm 5 mps 743 mmHg 78%
    19:00 +10°C° 0.1 mm 5 mps 744 mmHg 80%
    20:00 +10°C° 0.1 mm 4 mps 745 mmHg 82%
    21:00 +9°C° 0.1 mm 3 mps 746 mmHg 85%
    22:00 +8°C° 0 mm 3 mps 746 mmHg 87%
    23:00 +8°C° 0 mm 3 mps 746 mmHg 90%

    Tomorrow, 7 June, Sunday

    Time Temperature Precipitation Wind Pressure Humidity
    00:00 +8°C° 0 mm 3 mps 747 mmHg 93%
    01:00 +7°C° 0 mm 3 mps 747 mmHg 93%
    02:00 +7°C° 0 mm 3 mps 748 mmHg 94%
    03:00 +7°C° 0 mm 2 mps 748 mmHg 95%
    04:00 +7°C° 0 mm 3 mps 748 mmHg 94%
    05:00 +8°C° 0 mm 3 mps 748 mmHg 93%
    06:00 +9°C° 0 mm 3 mps 749 mmHg 92%
    07:00 +11°C° 0 mm 3 mps 749 mmHg 88%
    08:00 +12°C° 0 mm 3 mps 749 mmHg 84%
    09:00 +14°C° 0 mm 4 mps 750 mmHg 79%
    10:00 +14°C° 0.5 mm 4 mps 750 mmHg 79%
    11:00 +14°C° 0.5 mm 4 mps 750 mmHg 80%
    12:00 +14°C° 0.5 mm 4 mps 751 mmHg 80%
    13:00 +14°C° 0.3 mm 5 mps 751 mmHg 79%
    14:00 +14°C° 0.3 mm 5 mps 751 mmHg 77%
    15:00 +15°C° 0.3 mm 5 mps 751 mmHg 76%
    16:00 +14°C° 0.1 mm 5 mps 752 mmHg 77%
    17:00 +13°C° 0.1 mm 5 mps 752 mmHg 78%
    18:00 +13°C° 0.1 mm 5 mps 752 mmHg 79%
    19:00 +12°C° 0 mm 5 mps 753 mmHg 81%
    20:00 +11°C° 0 mm 4 mps 754 mmHg 83%
    21:00 +11°C° 0 mm 4 mps 755 mmHg 85%
    22:00 +11°C° 0 mm 4 mps 755 mmHg 85%
    23:00 +10°C° 0 mm 4 mps 755 mmHg 86%

    Day after tomorrow, 8 June, Monday

    Time Temperature Precipitation Wind Pressure Humidity
    00:00 +10°C° 0 mm 4 mps 756 mmHg 87%
    01:00 +10°C° 0 mm 4 mps 756 mmHg 86%
    02:00 +10°C° 0 mm 4 mps 756 mmHg 85%
    03:00 +10°C° 0 mm 4 mps 757 mmHg 84%
    04:00 +10°C° 0 mm 4 mps 757 mmHg 83%
    05:00 +8°C° 0 mm 4 mps 757 mmHg 83%
    06:00 +8°C° 0 mm 4 mps 757 mmHg 82%
    07:00 +10°C° 0 mm 4 mps 758 mmHg 79%
    08:00 +11°C° 0 mm 4 mps 758 mmHg 75%
    09:00 +12°C° 0 mm 4 mps 758 mmHg 72%
    10:00 +13°C° 0 mm 4 mps 758 mmHg 69%
    11:00 +13°C° 0 mm 4 mps 759 mmHg 67%
    12:00 +14°C° 0 mm 4 mps 759 mmHg 65%
    13:00 +14°C° 0 mm 4 mps 759 mmHg 64%
    14:00 +14°C° 0 mm 3 mps 759 mmHg 63%
    15:00 +14°C° 0 mm 3 mps 759 mmHg 62%
    16:00 +14°C° 0 mm 3 mps 759 mmHg 63%
    17:00 +13°C° 0 mm 3 mps 759 mmHg 65%
    18:00 +13°C° 0 mm 3 mps 759 mmHg 67%
    19:00 +11°C° 0 mm 3 mps 759 mmHg 73%
    20:00 +10°C° 0 mm 3 mps 760 mmHg 79%
    21:00 +8°C° 0 mm 2 mps 760 mmHg 85%
    22:00 +7°C° 0 mm 2 mps 760 mmHg 87%
    23:00 +7°C° 0 mm 1 mps 760 mmHg 88%

    9 June, Tuesday

    Time Temperature Precipitation Wind Pressure Humidity
    00:00 +7°C° 0 mm 1 mps 760 mmHg 89%
    01:00 +6°C° 0 mm 1 mps 760 mmHg 89%
    02:00 +5°C° 0 mm 0 mps 760 mmHg 89%
    03:00 +4°C° 0 mm 0 mps 760 mmHg 89%
    04:00 +6°C° 0 mm 0 mps 760 mmHg 87%
    05:00 +8°C° 0 mm 1 mps 761 mmHg 84%
    06:00 +9°C° 0 mm 1 mps 761 mmHg 82%
    07:00 +10°C° 0 mm 1 mps 761 mmHg 75%
    08:00 +12°C° 0 mm 2 mps 761 mmHg 68%
    09:00 +13°C° 0 mm 2 mps 761 mmHg 61%
    10:00 +14°C° 0 mm 2 mps 761 mmHg 59%
    11:00 +15°C° 0 mm 2 mps 761 mmHg 57%
    12:00 +16°C° 0 mm 2 mps 761 mmHg 55%
    13:00 +16°C° 0 mm 2 mps 761 mmHg 56%
    14:00 +16°C° 0 mm 2 mps 761 mmHg 58%
    15:00 +16°C° 0 mm 1 mps 760 mmHg 59%
    16:00 +16°C° 0 mm 1 mps 761 mmHg 62%
    17:00 +16°C° 0 mm 1 mps 761 mmHg 65%
    18:00 +16°C° 0 mm 1 mps 761 mmHg 68%
    19:00 +14°C° 0 mm 1 mps 761 mmHg 74%
    20:00 +12°C° 0 mm 2 mps 761 mmHg 80%
    21:00 +10°C° 0 mm 2 mps 761 mmHg 86%
    22:00 +9°C° 0 mm 2 mps 762 mmHg 87%
    23:00 +9°C° 0 mm 1 mps 762 mmHg 88%

    10 June, Wednesday

    Time Temperature Precipitation Wind Pressure Humidity
    00:00 +8°C° 0 mm 1 mps 762 mmHg 88%
    01:00 +8°C° 0 mm 1 mps 762 mmHg 88%
    02:00 +8°C° 0 mm 1 mps 762 mmHg 88%
    03:00 +8°C° 0 mm 1 mps 762 mmHg 88%
    04:00 +9°C° 0 mm 1 mps 762 mmHg 86%
    05:00 +10°C° 0 mm 1 mps 762 mmHg 84%
    06:00 +11°C° 0 mm 1 mps 762 mmHg 82%
    07:00 +13°C° 0 mm 1 mps 763 mmHg 77%
    08:00 +14°C° 0 mm 1 mps 763 mmHg 72%
    09:00 +16°C° 0 mm 1 mps 763 mmHg 67%
    10:00 +18°C° 0 mm 1 mps 763 mmHg 64%
    11:00 +19°C° 0 mm 1 mps 762 mmHg 61%
    12:00 +20°C° 0 mm 1 mps 762 mmHg 59%
    13:00 +20°C° 0 mm 1 mps 762 mmHg 60%
    14:00 +20°C° 0 mm 1 mps 762 mmHg 62%
    15:00 +19°C° 0 mm 2 mps 762 mmHg 63%
    16:00 +19°C° 0.1 mm 2 mps 762 mmHg 66%
    17:00 +19°C° 0.1 mm 2 mps 762 mmHg 69%
    18:00 +19°C° 0.1 mm 2 mps 762 mmHg 72%
    19:00 +17°C° 0 mm 2 mps 762 mmHg 74%
    20:00 +15°C° 0 mm 2 mps 762 mmHg 77%
    21:00 +14°C° 0 mm 2 mps 763 mmHg 79%
    22:00 +13°C° 0 mm 2 mps 762 mmHg 79%
    23:00 +12°C° 0 mm 2 mps 762 mmHg 78%

    11 June, Thursday

    Time Temperature Precipitation Wind Pressure Humidity
    00:00 +12°C° 0 mm 2 mps 762 mmHg 78%
    01:00 +10°C° 0 mm 2 mps 762 mmHg 79%
    02:00 +10°C° 0 mm 2 mps 762 mmHg 80%
    03:00 +9°C° 0 mm 2 mps 762 mmHg 81%
    04:00 +10°C° 0 mm 2 mps 762 mmHg 82%
    05:00 +12°C° 0 mm 2 mps 762 mmHg 83%
    06:00 +13°C° 0 mm 2 mps 761 mmHg 83%
    07:00 +13°C° 0 mm 3 mps 761 mmHg 79%
    08:00 +16°C° 0 mm 3 mps 761 mmHg 74%
    09:00 +18°C° 0 mm 3 mps 761 mmHg 70%
    10:00 +19°C° 0 mm 3 mps 761 mmHg 66%
    11:00 +20°C° 0 mm 3 mps 761 mmHg 63%
    12:00 +21°C° 0 mm 2 mps 760 mmHg 59%
    13:00 +21°C° 0 mm 2 mps 760 mmHg 61%
    14:00 +21°C° 0 mm 2 mps 760 mmHg 63%
    15:00 +21°C° 0 mm 3 mps 759 mmHg 65%
    16:00 +21°C° 0 mm 2 mps 759 mmHg 67%
    17:00 +21°C° 0 mm 2 mps 759 mmHg 69%
    18:00 +21°C° 0 mm 2 mps 759 mmHg 71%
    19:00 +19°C° 0 mm 2 mps 759 mmHg 76%
    20:00 +18°C° 0 mm 3 mps 759 mmHg 81%
    21:00 +16°C° 0 mm 3 mps 759 mmHg 85%
    22:00 +16°C° 0 mm 3 mps 759 mmHg 85%
    23:00 +15°C° 0 mm 2 mps 759 mmHg 86%
    Show more